Zurück zum Katalog

SITRO-AIS-54

AktivNavigationSSO
NORAD 59777·PAYLOAD·🇷🇺 Russia
Dieser Satellitenname wurde noch nicht durch offizielle Quellen bestätigt.

Gestartet May 16, 2024 von Plesetsk Cosmodrome

Loading…

Nächste Überflüge (nächste 24 Stunden)

TLE

AktuellSource: Space-Track

Epoche: Sep 14, 2026, 08:22 UTC

1 59777U 24092E   26257.34902484  .00016821  00000-0  42460-3 0  9995
2 59777  97.6693  34.3245 0006508 183.5853 176.5347 15.39893295129458

Verfolge SITRO-AIS-54 in Echtzeit mit AllMySat

Download on the App Store